Onweer radar Meer informatie blitzortung!


Regen radar Meer informatie rain snow radar


Bezoek onze andere website:

Template documentation
and downloads

And another site



15 daagse weersverwachting Zug (CH)

  • Overzicht
  • Per uur
  • 15 dagen
  • Extra
  • Vergelijk
  • Kaarten
  • Dagkaart
  • Meer »
  • Info
  • Statistieken
  • Directe link
    Temp 6h Neerslag Wind  
 06:02     21:04    Daglengte: 15:02 Vandaag
20:00
21°
 
1
 06:03     21:02    Daglengte: 14:59 Morgen
02:00
17°
 
1
08:00
18°
 
1
14:00
23°
 
3
20:00
23°
 
2
 06:04     21:01    Daglengte: 14:57 Vrijdag 30 Jul
02:00
17°
 
1
08:00
18°
 
1
14:00
26°
 
3
20:00
20°
14.8 mm
2
warningclass
 06:06     21:00    Daglengte: 14:54 Zaterdag 31 Jul
02:00
18°
21.7 mm
2
08:00
17°
4.5 mm
1
14:00
20°
28.0 mm
2
Locatie info
Region: Zug
Latitude: 47.1715°N
Longitude: 8.5162°E
424 masl
Postcode: 6300
Temp/Neerslag /Baro Onweer/Dauwpunt
    Temp Baro 1h Neerslag Dauwpunt Wind UV Bewolking  
 06:02     21:04    Daglengte: 15:02 Vandaag
20:00
21°
1015.9 hPa
48%
15.7°
1
Windvlaag: 1.5 m/s
15%
21:00
20°
1016.3 hPa
69%
16.3°
1
Windvlaag: -0.3 m/s
15%
22:00
18°
1016.7 hPa
66%
16.1°
1
Windvlaag: 0.1 m/s
19%
23:00
18°
1016.9 hPa
26%
16.4°
1
Windvlaag: 0.1 m/s
24%
 06:03     21:02    Daglengte: 14:59 Morgen
00:00
18°
1016.8 hPa
21%
16.0°
2
Windvlaag: 0.2 m/s
21%
01:00
17°
1016.8 hPa
24%
15.0°
1
Windvlaag: 0.5 m/s
27%
02:00
17°
1016.6 hPa
19%
14.4°
1
Windvlaag: 0.7 m/s
18%
03:00
17°
1016.7 hPa
17%
14.3°
2
Windvlaag: 0.7 m/s
13%
04:00
17°
1016.6 hPa
19%
14.0°
1
Windvlaag: 0.7 m/s
17%
05:00
17°
1016.5 hPa
25%
14.0°
1
Windvlaag: 0.3 m/s
20%
06:00
17°
1016.5 hPa
28%
13.5°
1
Windvlaag: 0.5 m/s
22%
07:00
17°
1016.7 hPa
21%
13.2°
1
Windvlaag: 0.8 m/s
23%
08:00
18°
1016.8 hPa
21%
13.3°
1
Windvlaag: 0.7 m/s
36%
09:00
19°
1017.0 hPa
19%
13.5°
1
Windvlaag: -2.2 m/s
40%
10:00
20°
1017.0 hPa
14%
13.5°
1
Windvlaag: -2.4 m/s
25%
11:00
21°
1016.8 hPa
14%
13.7°
2
Windvlaag: -2.6 m/s
13%
12:00
21°
1016.7 hPa
14%
13.8°
2
Windvlaag: -3 m/s
12%
13:00
22°
1016.3 hPa
14%
14.1°
2
Windvlaag: -3.2 m/s
13%
14:00
23°
1015.8 hPa
14%
14.2°
3
Windvlaag: -3.3 m/s
33%
15:00
24°
1015.4 hPa
14%
14.7°
3
Windvlaag: -3 m/s
15%
16:00
24°
1014.8 hPa
14%
15.0°
2
Windvlaag: -2.2 m/s
10%
17:00
24°
1014.2 hPa
14%
15.5°
1
Windvlaag: 0.8 m/s
2%
18:00
24°
1013.8 hPa
14%
16.0°
1
Windvlaag: 0.9 m/s
3%
19:00
24°
1013.5 hPa
14%
16.5°
1
Windvlaag: 0.4 m/s
9%
20:00
23°
1013.6 hPa
14%
16.5°
2
Windvlaag: -1.8 m/s
2%
21:00
21°
1013.8 hPa
14%
16.9°
2
Windvlaag: -1.8 m/s
8%
22:00
19°
1014.4 hPa
14%
16.8°
1
Windvlaag: -1.6 m/s
13%
23:00
18°
1014.5 hPa
14%
15.8°
1
Windvlaag: 0.4 m/s
14%
 06:04     21:01    Daglengte: 14:57 Vrijdag 30 Jul
00:00
18°
1014.3 hPa
14%
15.1°
1
Windvlaag: 1.3 m/s
8%
01:00
18°
1014.3 hPa
14%
14.6°
1
Windvlaag: 0.6 m/s
9%
02:00
17°
1014.0 hPa
15%
15.1°
1
Windvlaag: 1.3 m/s
9%
03:00
17°
1013.5 hPa
31%
15.7°
1
Windvlaag: 0.3 m/s
21%
04:00
17°
1013.3 hPa
73%
15.9°
1
Windvlaag: 0.3 m/s
10%
05:00
17°
1013.0 hPa
78%
16.2°
2
Windvlaag: 0.2 m/s
13%
06:00
17°
1013.0 hPa
76%
16.4°
1
Windvlaag: 0.2 m/s
35%
07:00
17°
1012.8 hPa
62%
16.5°
1
Windvlaag: 0.5 m/s
28%
08:00
18°
1012.9 hPa
18%
17.0°
1
Windvlaag: 0.5 m/s
13%
09:00
19°
1013.0 hPa
26%
15.9°
0
Windvlaag: 0.9 m/s
14%
10:00
21°
1012.7 hPa
19%
15.6°
1
Windvlaag: 2.8 m/s
7%
11:00
23°
1012.5 hPa
14%
15.7°
1
Windvlaag: 2.5 m/s
4%
12:00
25°
1012.1 hPa
14%
15.7°
1
Windvlaag: 0.8 m/s
5%
13:00
26°
1011.4 hPa
15%
16.4°
2
Windvlaag: 4.8 m/s
10%
14:00
26°
1010.7 hPa
17%
17.8°
3
Windvlaag: 5.4 m/s
14%
15:00
27°
1010.2 hPa
78%
18.0°
4
Windvlaag: 4.9 m/s
9%
16:00
27°
1010.6 hPa
82%
18.1°
4
Windvlaag: 5.5 m/s
20%
17:00
24°
1009.7 hPa 3.0 mm
100%
17.7°
5
Windvlaag: 5 m/s
82% warningclass
18:00
22°
1010.3 hPa 4.6 mm
98%
19.3°
4
Windvlaag: 2.5 m/s
86% warningclass
19:00
21°
1011.1 hPa 3.0 mm
100%
19.2°
2
Windvlaag: 1.9 m/s
89% warningclass
20:00
20°
1011.5 hPa 4.2 mm
100%
18.3°
2
Windvlaag: 3.3 m/s
99% warningclass
21:00
20°
1011.9 hPa 4.9 mm
99%
18.3°
2
Windvlaag: 5.9 m/s
95% warningclass
22:00
19°
1012.5 hPa 3.2 mm
89%
17.0°
3
Windvlaag: 7.4 m/s
92%
23:00
19°
1012.7 hPa 4.4 mm
90%
16.2°
3
Windvlaag: 7.2 m/s
62%
 06:06     21:00    Daglengte: 14:54 Zaterdag 31 Jul
00:00
18°
1012.8 hPa 4.5 mm
96%
15.2°
3
Windvlaag: 7.4 m/s
76%
01:00
18°
1012.7 hPa 4.7 mm
95%
15.4°
2
Windvlaag: 7.3 m/s
88%
02:00
18°
1012.6 hPa
85%
16.2°
2
Windvlaag: 5.8 m/s
92%
03:00
18°
1012.5 hPa
80%
16.9°
1
Windvlaag: 3 m/s
92%
04:00
18°
1012.4 hPa
85%
16.4°
2
Windvlaag: -2 m/s
82%
05:00
17°
1012.2 hPa
87%
15.2°
2
Windvlaag: -3.1 m/s
92%
06:00
17°
1012.3 hPa
41%
14.6°
2
Windvlaag: -2.3 m/s
77%
07:00
16°
1012.6 hPa
46%
13.8°
2
Windvlaag: 0.2 m/s
89%
08:00
17°
1012.8 hPa 4.5 mm
48%
13.7°
1
Windvlaag: 0.9 m/s
92%
09:00
17°
1012.9 hPa 4.5 mm
94%
12.8°
1
Windvlaag: 1.1 m/s
80%
10:00
18°
1012.6 hPa 4.7 mm
95%
11.2°
1
Windvlaag: 0.2 m/s
64%
11:00
19°
1012.5 hPa 4.7 mm
98%
10.5°
1
Windvlaag: -1.1 m/s
47%
12:00
19°
1012.4 hPa 4.8 mm
97%
10.0°
2
Windvlaag: -2.4 m/s
55%
13:00
20°
1012.3 hPa 4.8 mm
94%
9.6°
2
Windvlaag: -2.5 m/s
59%
14:00
20°
1011.7 hPa 4.5 mm
96%
9.9°
2
Windvlaag: -2.7 m/s
48%
15:00
20°
1011.9 hPa
44%
10.2°
1
Windvlaag: 4.8 m/s
87%
16:00
20°
1011.7 hPa
37%
11.3°
1
Windvlaag: 3.9 m/s
91%
17:00
21°
1011.2 hPa
31%
11.5°
1
Windvlaag: 3.4 m/s
61%
18:00
21°
1010.8 hPa
31%
11.6°
1
Windvlaag: 3 m/s
63%
19:00
20°
1010.7 hPa
27%
12.5°
1
Windvlaag: 2.9 m/s
74%
Temp/Neerslag /Baro Onweer/Dauwpunt
    Temp Baro Neerslag Dauwpunt Wind Bewolking  
 06:02     21:04    Daglengte: 15:02 Vandaag
20:00
21°
1015.9 hPa   15.7°
1
15%
23:00
18°
1016.9 hPa   16.4°
1
24%
 06:03     21:02    Daglengte: 14:59 Morgen
02:00
17°
1016.6 hPa   14.4°
1
18%
05:00
17°
1016.5 hPa   14.0°
1
20%
08:00
18°
1016.8 hPa   13.3°
1
36%
11:00
21°
1016.8 hPa   13.7°
2
13%
14:00
23°
1015.8 hPa   14.2°
3
33%
17:00
24°
1014.2 hPa   15.5°
1
2%
20:00
23°
1013.6 hPa   16.5°
2
2%
23:00
18°
1014.5 hPa   15.8°
1
14%
 06:04     21:01    Daglengte: 14:57 Vrijdag 30 Jul
02:00
17°
1014.0 hPa   15.1°
1
9%
05:00
17°
1013.0 hPa   16.2°
2
13%
08:00
18°
1012.9 hPa   17.0°
1
13%
11:00
23°
1012.5 hPa   15.7°
1
4%
14:00
26°
1010.7 hPa   17.8°
3
14%
17:00
24°
1009.7 hPa 3.0 mm 17.7°
5
82% warningclass
20:00
20°
1011.5 hPa 11.8 mm 18.3°
2
99% warningclass
23:00
19°
1012.7 hPa 12.6 mm 16.2°
3
62%
 06:06     21:00    Daglengte: 14:54 Zaterdag 31 Jul
02:00
18°
1012.6 hPa 9.2 mm 16.2°
2
92%
05:00
17°
1012.2 hPa   15.2°
2
92%
08:00
17°
1012.8 hPa 4.5 mm 13.7°
1
92%
11:00
19°
1012.5 hPa 13.9 mm 10.5°
1
47%
14:00
20°
1011.7 hPa 14.1 mm 9.9°
2
48%
17:00
21°
1011.2 hPa   11.5°
1
61%
20:00
20°
1010.5 hPa   14.9°
0
79%
23:00
16°
1011.5 hPa 33.8 mm 14.7°
1
1%
 06:07     20:58    Daglengte: 14:51 Zondag 01 Aug
02:00
15°
1012.0 hPa 43.8 mm 14.6°
1
1%
05:00
14°
1012.3 hPa 52.8 mm 13.4°
2
1%
08:00
14°
1012.6 hPa 53.3 mm 13.5°
1
1%
11:00
16°
1013.4 hPa 54.3 mm 14.0°
1
1%
14:00
20°
1011.9 hPa 55.1 mm 13.1°
2
1%
17:00
20°
1012.5 hPa 56.2 mm 13.1°
2
0%
20:00
16°
1013.8 hPa 57.9 mm 14.7°
1
0%
23:00
13°
1015.8 hPa 58.7 mm 12.8°
1
1%
 06:08     20:57    Daglengte: 14:49 Maandag 02 Aug
02:00
14°
1015.7 hPa 59.0 mm 13.4°
1
1%
05:00
14°
1015.7 hPa 59.1 mm 13.2°
1
1%
08:00
15°
1016.2 hPa 59.2 mm 13.9°
0
1%
11:00
19°
1015.8 hPa 59.5 mm 11.8°
1
0%
14:00
22°
1014.6 hPa 59.5 mm 10.6°
2
0%
17:00
22°
1014.5 hPa 59.6 mm 11.2°
2
1%
20:00
18°
1015.0 hPa 59.9 mm 15.5°
1
1%
23:00
14°
1017.0 hPa 60.3 mm 13.3°
1
0%
 06:09     20:55    Daglengte: 14:46 Dinsdag 03 Aug
02:00
13°
1017.3 hPa 60.3 mm 12.4°
1
0%
05:00
13°
1016.5 hPa 60.3 mm 11.8°
1
0%
08:00
15°
1016.5 hPa 60.3 mm 13.9°
0
0%
11:00
21°
1014.7 hPa 60.3 mm 14.7°
2
0%
14:00
20°
1014.0 hPa 61.1 mm 15.0°
2
1%
17:00
18°
1015.5 hPa 63.0 mm 14.1°
2
1%
20:00
15°
1017.1 hPa 65.3 mm 14.6°
1
1%
23:00
15°
1018.5 hPa 65.3 mm 13.8°
0
1%
 06:11     20:54    Daglengte: 14:43 Woensdag 04 Aug
02:00
13°
1018.5 hPa 65.3 mm 12.1°
1
1%
05:00
12°
1018.1 hPa 65.3 mm 11.2°
1
0%
08:00
14°
1018.3 hPa 65.3 mm 13.2°
0
0%
11:00
20°
1017.1 hPa 65.4 mm 14.0°
2
0%
14:00
21°
1016.1 hPa 65.4 mm 13.1°
2
1%
17:00
23°
1015.6 hPa   13.0°
1
1%
20:00
20°
1016.0 hPa 130.8 mm 15.6°
0
1%
 06:12     20:53    Daglengte: 14:41 Donderdag 05 Aug
02:00
14°
1017.6 hPa 130.9 mm 13.7°
1
1%
08:00
17°
1015.6 hPa 130.9 mm 14.4°
1
0%
14:00
26°
1011.1 hPa 130.9 mm 15.9°
2
1%
20:00
17°
1011.8 hPa 133.2 mm 15.6°
4
1%
 06:13     20:51    Daglengte: 14:38 Vrijdag 06 Aug
02:00
15°
1013.6 hPa 154.8 mm 14.8°
1
1%
08:00
14°
1015.4 hPa 183.8 mm 13.5°
1
1%
14:00
17°
1015.8 hPa 194.7 mm 15.2°
3
0%
20:00
14°
1018.1 hPa 206.8 mm 13.0°
1
1%
 06:14     20:49    Daglengte: 14:35 Zaterdag 07 Aug
02:00
11°
1019.3 hPa 210.3 mm 10.1°
2
0%
08:00
15°
1015.2 hPa 2.6 mm 13.0°
1
76%
14:00
20°
1014.7 hPa 1.8 mm 13.4°
2
66%
20:00
18°
1015.4 hPa 1.4 mm 14.1°
1
58%
 06:16     20:48    Daglengte: 14:32 Zondag 08 Aug
02:00
14°
1017.7 hPa 1.4 mm 12.0°
1
49%
08:00
15°
1017.9 hPa 0.5 mm 12.6°
1
40%
14:00
22°
1017.3 hPa 0.6 mm 13.3°
2
41%
20:00
19°
1018.1 hPa 0.5 mm 14.8°
1
37%
 06:17     20:46    Daglengte: 14:29 Maandag 09 Aug
02:00
15°
1019.9 hPa 0.5 mm 12.9°
1
42%
08:00
17°
1019.8 hPa 0.6 mm 13.6°
1
36%
14:00
24°
1018.6 hPa 0.4 mm 14.4°
2
39%
20:00
20°
1019.1 hPa 1.5 mm 15.8°
1
44%
 06:18     20:45    Daglengte: 14:27 Dinsdag 10 Aug
02:00
16°
1020.9 hPa 1.9 mm 13.5°
1
39%
08:00
17°
1020.9 hPa 0.8 mm 13.9°
1
41%
14:00
23°
1019.6 hPa 0.9 mm 14.2°
2
46%
20:00
20°
1019.5 hPa 1.0 mm 15.2°
1
39%
 06:20     20:43    Daglengte: 14:23 Woensdag 11 Aug
02:00
16°
1021.1 hPa 1.1 mm 13.0°
1
40%
08:00
16°
1021.2 hPa 1.4 mm 13.5°
1
50%
14:00
22°
1019.9 hPa 0.9 mm 13.7°
2
44%
20:00
18°
1020.1 hPa 2.1 mm 14.3°
1
51%
 06:21     20:41    Daglengte: 14:20 Donderdag 12 Aug
02:00
15°
1021.6 hPa 1.4 mm 12.4°
1
53%
08:00
15°
1021.1 hPa 0.5 mm 12.8°
0
55%
14:00
22°
1019.3 hPa 0.6 mm 13.2°
2
50%
  CAPE Lifted Index Hail Supercell Tornado SRH 3km CL BTM PRES CL TOP PRES Swiss DWD icon SMHI TS
 06:02     21:04    Daglengte: 15:02 Vandaag
20:00 151 J/kg -0.4 K 0 % 0 % 0 % 0 m²/s² 0 0 5 2
21:00 72 J/kg 0.3 K 0 % 0 % 0 % 0 m²/s² 0 0 6.15 2
22:00 63 J/kg 0.2 K 0 % 0 % 0 % 0 m²/s² 0 0 6.23 2
23:00 48 J/kg 0.2 K 0 % 0 % 0 % 0 m²/s² 0 0 6.56 2
 06:03     21:02    Daglengte: 14:59 Morgen
00:00 17 J/kg 0.8 K 0 % 0 % 0 % 0 m²/s² 0 0 7.37 2
01:00 2 J/kg 1.2 K 0 % 0 % 0 % 0 m²/s² 0 0 7.38 3
02:00 0 J/kg 1.5 K 0 % 0 % 0 % 0 m²/s² 0 0 7.68 2
03:00 1 J/kg 1.7 K 0 % 0 % 0 % 0 m²/s² 0 0 7.55 2
04:00 0 J/kg 2.2 K 0 % 0 % 0 % 0 m²/s² 0 0 7.9 3
05:00 0 J/kg 2.2 K 0 % 0 % 0 % 0 m²/s² 0 0 7.75 3
06:00 0 J/kg 2.1 K 0 % 0 % 0 % 0 m²/s² 0 0 8.13 3
07:00 0 J/kg 2.3 K 0 % 0 % 0 % 0 m²/s² 0 0 8.87 2
08:00 0 J/kg 2.6 K 0 % 0 % 0 % 0 m²/s² 0 0 9.59 2
09:00 6 J/kg 2.5 K 0 % 0 % 0 % 0 m²/s² 0 0 9.49 3
10:00 32 J/kg 1.6 K 0 % 0 % 0 % 0 m²/s² 0 0 8.83 3
11:00 59 J/kg 0.8 K 0 % 0 % 0 % 0 m²/s² 0 0 8.27 2
12:00 68 J/kg 0.3 K 0 % 0 % 0 % 0 m²/s² 0 0 8.04 2
13:00 47 J/kg 0.4 K 0 % 0 % 0 % 0 m²/s² 0 0 8.14 2
14:00 24 J/kg 0.5 K 0 % 0 % 0 % 0 m²/s² 0 0 7.52 2
15:00 27 J/kg 0.2 K 0 % 0 % 0 % 0 m²/s² 0 0 6.44 2
16:00 41 J/kg 0.1 K 0 % 0 % 0 % 0 m²/s² 0 0 6.88 2
17:00 74 J/kg -0.1 K 0 % 0 % 0 % 0 m²/s² 0 0 6.68 2
18:00 129 J/kg -0.5 K 0 % 0 % 0 % 0 m²/s² 0 0 5.08 2
19:00 434 J/kg -1.6 K 0 % 0 % 0 % 0 m²/s² 0 0 2.84 1
20:00 623 J/kg -2.4 K 0 % 0 % 0 % 0 m²/s² 0 0 0.66 1
21:00 90 J/kg -1.1 K 0 % 0 % 0 % 0 m²/s² 0 0 1.12 3
22:00 38 J/kg -2.1 K 0 % 0 % 0 % 0 m²/s² 0 0 -1.38 0
23:00 0 J/kg -1.4 K 0 % 0 % 0 % 0 m²/s² 0 0 -1.37 1
 06:04     21:01    Daglengte: 14:57 Vrijdag 30 Jul
00:00 0 J/kg 0.0 K 0 % 0 % 0 % 0 m²/s² 0 0 0.45 1
01:00 0 J/kg -2.4 K 0 % 0 % 0 % 0 m²/s² 0 0 -2.4 0
02:00 0 J/kg -2.7 K 0 % 0 % 0 % 0 m²/s² 0 0 -2.7 1
03:00 0 J/kg -3.4 K 0 % 0 % 0 % 0 m²/s² 0 0 -2.47 3
04:00 0 J/kg -2.7 K 0 % 0 % 0 % 0 m²/s² 0 0 -2.52 2
05:00 112 J/kg -5.0 K 0 % 0 % 0 % 0 m²/s² 0 0 -4.91 2
06:00 56 J/kg -3.2 K 0 % 0 % 0 % 0 m²/s² 0 0 -3.2 80
07:00 132 J/kg -3.1 K 0 % 0 % 0 % 0 m²/s² 0 0 -1.66 2
08:00 256 J/kg -2.4 K 0 % 0 % 0 % 0 m²/s² 0 0 -1.29 2
09:00 339 J/kg -1.6 K 0 % 0 % 0 % 0 m²/s² 0 0 -0.73 2
10:00 594 J/kg -2.6 K 0 % 0 % 0 % 0 m²/s² 0 0 -1.37 2
11:00 1021 J/kg -3.8 K 0 % 0 % 0 % 0 m²/s² 0 0 -2.57 1
12:00 909 J/kg -3.8 K 0 % 0 % 0 % 0 m²/s² 0 0 -2.69 0
13:00 1114 J/kg -4.8 K 0 % 0 % 0 % 0 m²/s² 0 0 -3.69 3
14:00 1451 J/kg -5.3 K 0 % 0 % 0 % 0 m²/s² 0 0 -4.13 3
15:00 600 J/kg -2.7 K 0 % 0 % 0 % 0 m²/s² 0 0 -0.93 3
16:00 499 J/kg -2.7 K 0 % 0 % 0 % 0 m²/s² 0 0 -1.17 80
17:00 711 J/kg -3.7 K 0 % 0 % 0 % 0 m²/s² 0 0 -3.52 80
18:00 728 J/kg -3.7 K 0 % 0 % 0 % 0 m²/s² 0 0 -3.67 3
19:00 1023 J/kg -3.9 K 0 % 0 % 0 % 0 m²/s² 0 0 -3.9 80
20:00 976 J/kg -3.3 K 0 % 0 % 0 % 0 m²/s² 0 0 -2.58 80
21:00 819 J/kg -2.6 K 0 % 0 % 0 % 0 m²/s² 0 0 -2.33 95
22:00 210 J/kg -0.1 K 0 % 0 % 0 % 0 m²/s² 0 0 0.83 80
23:00 6 J/kg 2.6 K 0 % 0 % 0 % 0 m²/s² 0 0 3.71 3
 06:06     21:00    Daglengte: 14:54 Zaterdag 31 Jul
00:00 0 J/kg 1.3 K 0 % 0 % 0 % 0 m²/s² 0 0 2.53 80
01:00 0 J/kg 0.8 K 0 % 0 % 0 % 0 m²/s² 0 0 2.99 80
02:00 0 J/kg 0.6 K 0 % 0 % 0 % 0 m²/s² 0 0 2.97 3
03:00 9 J/kg 0.8 K 0 % 0 % 0 % 0 m²/s² 0 0 2.57 3
04:00 3 J/kg 1.4 K 0 % 0 % 0 % 0 m²/s² 0 0 2.99 3
05:00 0 J/kg 2.0 K 0 % 0 % 0 % 0 m²/s² 0 0 3.41 3
06:00 0 J/kg 2.9 K 0 % 0 % 0 % 0 m²/s² 0 0 4.73 2
07:00 0 J/kg 3.3 K 0 % 0 % 0 % 0 m²/s² 0 0 5.61 3
08:00 0 J/kg 3.6 K 0 % 0 % 0 % 0 m²/s² 0 0 6.12 3
09:00 5 J/kg 2.8 K 0 % 0 % 0 % 0 m²/s² 0 0 5.62 3
10:00 0 J/kg 2.9 K 0 % 0 % 0 % 0 m²/s² 0 0 6.32 80
11:00 0 J/kg 2.4 K 0 % 0 % 0 % 0 m²/s² 0 0 5.91 80
12:00 0 J/kg 2.0 K 0 % 0 % 0 % 0 m²/s² 0 0 5.42 80
13:00 0 J/kg 1.7 K 0 % 0 % 0 % 0 m²/s² 0 0 4.85 80
14:00 0 J/kg 1.2 K 0 % 0 % 0 % 0 m²/s² 0 0 4.11 61
15:00 10 J/kg 0.3 K 0 % 0 % 0 % 0 m²/s² 0 0 3.12 3
16:00 104 J/kg -0.6 K 0 % 0 % 0 % 0 m²/s² 0 0 2.16 3
17:00 92 J/kg -0.7 K 0 % 0 % 0 % 0 m²/s² 0 0 2.3 3
18:00 56 J/kg -0.5 K 0 % 0 % 0 % 0 m²/s² 0 0 2.68 3
19:00 69 J/kg -0.5 K 0 % 0 % 0 % 0 m²/s² 0 0 2.02 3
Temp Baro Wind Neerslag
  EWN Forecast EWN WRFDA DWD ICON FMI HIRLAM MET Norway GFS
 06:02     21:04    Daglengte: 15:02 Vandaag
20:00 20.6° 1015.9 hPa 0.8 m/s 0.0 mm 20.4° 1014.2 hPa 1.0 m/s 4.0 mm 20.6° 1015.6 hPa 0.5 m/s -1.7 mm 20.3° 1017.5 hPa 0.8 m/s 0.0 mm 19.2° 1016.3 hPa 0.6 m/s
23:00 18.1° 1016.9 hPa 1.4 m/s 0.0 mm 15.7° 1014.9 hPa 1.9 m/s 12.0 mm 18.6° 1016.7 hPa 1.3 m/s 0.1 mm 17.5° 1018.6 hPa 1.3 m/s 0.0 mm 15.7° 1017.8 hPa 1.4 m/s
 06:03     21:02    Daglengte: 14:59 Morgen
02:00 17.0° 1016.6 hPa 1.2 m/s 0.0 mm 14.3° 1014.6 hPa 2.7 m/s 12.0 mm 18.1° 1016.5 hPa 0.3 m/s 0.0 mm 17.2° 1018.6 hPa 1.1 m/s 0.0 mm 15.4° 1017.2 hPa 1.3 m/s
05:00 16.6° 1016.5 hPa 1.3 m/s 0.0 mm 13.6° 1014.8 hPa 2.5 m/s 12.1 mm 16.9° 1016.4 hPa 0.5 m/s 0.0 mm 17.5° 1018.8 hPa 1.1 m/s 0.0 mm 14.1° 1017.6 hPa 1.1 m/s
08:00 17.9° 1016.8 hPa 0.9 m/s 0.0 mm 18.1° 1014.6 hPa 1.0 m/s 12.1 mm 18.1° 1016.6 hPa 0.1 m/s 0.0 mm 18.2° 1018.6 hPa 0.9 m/s 0.0 mm 16.5° 1017.2 hPa 0.4 m/s
11:00 20.7° 1016.8 hPa 1.8 m/s 0.0 mm 22.1° 1014.3 hPa 1.9 m/s 12.1 mm 20.5° 1016.6 hPa 2.0 m/s 0.0 mm 20.9° 1017.5 hPa 1.3 m/s 0.0 mm 22.4° 1016.4 hPa 1.1 m/s
14:00 22.8° 1015.8 hPa 2.7 m/s 0.0 mm 24.6° 1012.9 hPa 4.0 m/s 12.1 mm 22.6° 1015.5 hPa 1.7 m/s 0.0 mm 23.3° 1016.4 hPa 2.7 m/s 0.0 mm 25.3° 1014.5 hPa 1.7 m/s
17:00 24.1° 1014.2 hPa 1.3 m/s 0.0 mm 25.6° 1011.8 hPa 3.9 m/s 12.1 mm 24.1° 1014.0 hPa 0.8 m/s 0.0 mm 23.7° 1015.4 hPa 3.0 m/s 0.0 mm 26.3° 1013.2 hPa 1.4 m/s
20:00 22.5° 1013.6 hPa 2.3 m/s 0.0 mm 22.6° 1011.9 hPa 2.3 m/s 12.1 mm 22.5° 1013.3 hPa 2.2 m/s 0.0 mm 22.1° 1015.8 hPa 2.2 m/s 0.0 mm 21.6° 1013.7 hPa 1.2 m/s
23:00 18.4° 1014.5 hPa 1.0 m/s 0.0 mm 18.6° 1013.3 hPa 2.1 m/s 12.1 mm 18.5° 1013.9 hPa 0.8 m/s 0.0 mm 17.3° 1017.8 hPa 0.6 m/s 0.0 mm 17.3° 1014.7 hPa 2.2 m/s
 06:04     21:01    Daglengte: 14:57 Vrijdag 30 Jul
02:00 17.4° 1014.0 hPa 1.0 m/s 0.0 mm 18.4° 1012.6 hPa 1.7 m/s 18.7 mm 17.4° 1013.6 hPa 0.9 m/s 0.0 mm 16.2° 1017.5 hPa 0.1 m/s 0.0 mm 17.5° 1014.1 hPa 1.2 m/s
05:00 16.8° 1013.0 hPa 1.6 m/s 0.0 mm 18.2° 1010.9 hPa 0.4 m/s 23.9 mm 17.2° 1012.7 hPa 1.7 m/s 0.2 mm 14.4° 1016.9 hPa 1.5 m/s 0.0 mm 16.3° 1013.0 hPa 0.9 m/s
08:00 18.2° 1012.9 hPa 0.6 m/s 0.0 mm 19.2° 1011.2 hPa 0.5 m/s 29.5 mm 18.2° 1012.6 hPa 0.9 m/s 0.3 mm 16.4° 1016.1 hPa 0.4 m/s 0.0 mm 18.6° 1012.8 hPa 0.6 m/s
11:00 22.8° 1012.5 hPa 0.6 m/s 0.0 mm 23.9° 1010.1 hPa 1.5 m/s 31.2 mm 22.2° 1012.6 hPa 0.2 m/s 0.0 mm 22.7° 1014.2 hPa 0.5 m/s 0.0 mm 24.3° 1011.6 hPa 1.1 m/s
14:00 26.4° 1010.7 hPa 2.9 m/s 0.0 mm 24.8° 1009.8 hPa 4.4 m/s 31.9 mm 26.2° 1010.7 hPa 3.0 m/s 0.0 mm 26.2° 1012.7 hPa 2.1 m/s 0.0 mm 26.8° 1010.1 hPa 2.6 m/s
17:00 23.8° 1009.7 hPa 4.7 m/s 3.0 mm 23.6° 1009.3 hPa 5.9 m/s 34.3 mm 22.2° 1011.6 hPa 3.4 m/s 1.3 mm 21.4° 1011.5 hPa 1.8 m/s
20:00 20.4° 1011.5 hPa 2.1 m/s 11.8 mm 20.9° 1009.9 hPa 2.2 m/s 36.6 mm 20.5° 1012.2 hPa 1.2 m/s 3.2 mm 19.7° 1012.1 hPa 1.9 m/s
23:00 18.9° 1012.7 hPa 3.0 m/s 12.6 mm 17.1° 1011.3 hPa 3.2 m/s 37.8 mm 19.4° 1012.9 hPa 1.3 m/s 3.5 mm 17.4° 1014.1 hPa 0.9 m/s
 06:06     21:00    Daglengte: 14:54 Zaterdag 31 Jul
02:00 18.3° 1012.6 hPa 1.7 m/s 9.2 mm 16.9° 1012.4 hPa 1.8 m/s 38.0 mm 18.7° 1012.7 hPa 0.9 m/s 1.2 mm 16.9° 1014.7 hPa 0.5 m/s
05:00 17.4° 1012.2 hPa 1.9 m/s 0.0 mm 15.8° 1011.8 hPa 2.7 m/s 39.3 mm 18.5° 1012.2 hPa 0.4 m/s 0.0 mm 16.3° 1013.8 hPa 0.8 m/s
08:00 16.6° 1012.8 hPa 1.4 m/s 4.5 mm 16.4° 1012.4 hPa 1.5 m/s 39.5 mm 18.1° 1012.4 hPa 0.9 m/s 0.0 mm 16.9° 1013.6 hPa 0.4 m/s
11:00 18.6° 1012.5 hPa 1.5 m/s 13.9 mm 19.9° 1011.5 hPa 1.2 m/s 39.5 mm 18.7° 1012.4 hPa 1.3 m/s 1.1 mm 18.3° 1013.8 hPa 1.2 m/s
14:00 20.3° 1011.7 hPa 2.2 m/s 14.1 mm 22.1° 1010.9 hPa 3.3 m/s 39.5 mm 18.9° 1012.4 hPa 1.1 m/s 1.4 mm 21.5° 1012.6 hPa 1.7 m/s
17:00 20.5° 1011.2 hPa 1.0 m/s 0.0 mm 22.1° 1010.3 hPa 3.0 m/s 39.5 mm 20.1° 1011.4 hPa 0.5 m/s 0.0 mm 20.9° 1011.8 hPa 1.1 m/s
20:00 20.0° 1010.5 hPa 0.5 m/s 0.0 mm 19.9° 1010.0 hPa 2.0 m/s 39.5 mm 20.0° 1010.6 hPa 0.1 m/s 0.0 mm 19.4° 1010.9 hPa 1.3 m/s
23:00 16.2° 1011.5 hPa 0.8 m/s 33.8 mm 16.2° 1011.5 hPa 0.8 m/s 33.8 mm
 06:07     20:58    Daglengte: 14:51 Zondag 01 Aug
02:00 14.7° 1012.0 hPa 0.8 m/s 43.8 mm 14.7° 1012.0 hPa 0.8 m/s 43.8 mm
05:00 13.7° 1012.3 hPa 1.6 m/s 52.8 mm 13.7° 1012.3 hPa 1.6 m/s 52.8 mm
08:00 14.3° 1012.6 hPa 1.3 m/s 53.3 mm 14.3° 1012.6 hPa 1.3 m/s 53.3 mm
11:00 15.5° 1013.4 hPa 1.3 m/s 54.3 mm 15.5° 1013.4 hPa 1.3 m/s 54.3 mm
14:00 20.3° 1011.9 hPa 2.2 m/s 55.1 mm 20.3° 1011.9 hPa 2.2 m/s 55.1 mm
17:00 19.8° 1012.5 hPa 2.4 m/s 56.2 mm 19.8° 1012.5 hPa 2.4 m/s 56.2 mm
20:00 16.3° 1013.8 hPa 1.4 m/s 57.9 mm 16.3° 1013.8 hPa 1.4 m/s 57.9 mm
23:00 13.4° 1015.8 hPa 1.2 m/s 58.7 mm 13.4° 1015.8 hPa 1.2 m/s 58.7 mm
 06:08     20:57    Daglengte: 14:49 Maandag 02 Aug
02:00 14.1° 1015.7 hPa 0.8 m/s 59.0 mm 14.1° 1015.7 hPa 0.8 m/s 59.0 mm
05:00 13.9° 1015.7 hPa 0.9 m/s 59.1 mm 13.9° 1015.7 hPa 0.9 m/s 59.1 mm
08:00 14.9° 1016.2 hPa 0.5 m/s 59.2 mm 14.9° 1016.2 hPa 0.5 m/s 59.2 mm
11:00 19.4° 1015.8 hPa 1.3 m/s 59.5 mm 19.4° 1015.8 hPa 1.3 m/s 59.5 mm
14:00 22.5° 1014.6 hPa 2.0 m/s 59.5 mm 22.5° 1014.6 hPa 2.0 m/s 59.5 mm
17:00 21.8° 1014.5 hPa 1.6 m/s 59.6 mm 21.8° 1014.5 hPa 1.6 m/s 59.6 mm
20:00 18.2° 1015.0 hPa 1.0 m/s 59.9 mm 18.2° 1015.0 hPa 1.0 m/s 59.9 mm
23:00 14.2° 1017.0 hPa 1.3 m/s 60.3 mm 14.2° 1017.0 hPa 1.3 m/s 60.3 mm
 06:09     20:55    Daglengte: 14:46 Dinsdag 03 Aug
02:00 13.2° 1017.3 hPa 1.3 m/s 60.3 mm 13.2° 1017.3 hPa 1.3 m/s 60.3 mm
05:00 12.6° 1016.5 hPa 1.3 m/s 60.3 mm 12.6° 1016.5 hPa 1.3 m/s 60.3 mm
08:00 15.4° 1016.5 hPa 0.1 m/s 60.3 mm 15.4° 1016.5 hPa 0.1 m/s 60.3 mm
11:00 21.2° 1014.7 hPa 1.6 m/s 60.3 mm 21.3° 1014.7 hPa 1.6 m/s 60.3 mm
14:00 20.1° 1014.0 hPa 2.2 m/s 61.1 mm 20.1° 1014.0 hPa 2.2 m/s 61.1 mm
17:00 17.7° 1015.5 hPa 2.0 m/s 63.0 mm 17.7° 1015.5 hPa 2.0 m/s 63.0 mm
20:00 15.4° 1017.1 hPa 0.8 m/s 65.3 mm 15.4° 1017.1 hPa 0.8 m/s 65.3 mm
23:00 14.6° 1018.5 hPa 0.3 m/s 65.3 mm 14.6° 1018.5 hPa 0.3 m/s 65.3 mm
 06:11     20:54    Daglengte: 14:43 Woensdag 04 Aug
02:00 12.5° 1018.5 hPa 0.9 m/s 65.3 mm 12.5° 1018.5 hPa 0.9 m/s 65.3 mm
05:00 11.7° 1018.1 hPa 1.1 m/s 65.3 mm 11.7° 1018.1 hPa 1.1 m/s 65.3 mm
08:00 14.0° 1018.3 hPa 0.2 m/s 65.3 mm 14.0° 1018.3 hPa 0.2 m/s 65.3 mm
11:00 19.5° 1017.1 hPa 1.7 m/s 65.4 mm 19.5° 1017.1 hPa 1.7 m/s 65.4 mm
14:00 21.4° 1016.1 hPa 1.8 m/s 65.4 mm 21.4° 1016.1 hPa 1.8 m/s 65.4 mm
17:00 22.7° 1015.6 hPa 1.4 m/s 65.4 mm 22.7° 1015.6 hPa 1.4 m/s 65.4 mm
20:00 19.5° 1016.0 hPa 0.4 m/s 65.4 mm 19.5° 1016.0 hPa 0.4 m/s 65.4 mm
 06:12     20:53    Daglengte: 14:41 Donderdag 05 Aug
02:00 14.5° 1017.6 hPa 1.0 m/s 65.4 mm 14.5° 1017.6 hPa 1.0 m/s 65.4 mm
08:00 16.6° 1015.6 hPa 0.6 m/s 65.4 mm 16.6° 1015.6 hPa 0.6 m/s 65.4 mm
14:00 25.8° 1011.1 hPa 1.7 m/s 65.4 mm 25.8° 1011.1 hPa 1.7 m/s 65.4 mm
20:00 17.4° 1011.8 hPa 3.6 m/s 67.6 mm 17.4° 1011.8 hPa 3.6 m/s 67.6 mm
 06:13     20:51    Daglengte: 14:38 Vrijdag 06 Aug
02:00 14.9° 1013.6 hPa 0.9 m/s 80.5 mm 14.9° 1013.6 hPa 0.9 m/s 80.5 mm
08:00 14.3° 1015.4 hPa 1.1 m/s 93.9 mm 14.3° 1015.4 hPa 1.1 m/s 93.9 mm
14:00 17.1° 1015.8 hPa 3.3 m/s 99.0 mm 17.1° 1015.8 hPa 3.3 m/s 99.0 mm
20:00 14.5° 1018.1 hPa 1.3 m/s 104.6 mm 14.5° 1018.1 hPa 1.3 m/s 104.6 mm
 06:14     20:49    Daglengte: 14:35 Zaterdag 07 Aug
02:00 11.0° 1019.3 hPa 1.7 m/s 105.2 mm 11.0° 1019.3 hPa 1.7 m/s 105.2 mm
08:00 15.0° 1015.2 hPa 0.7 m/s 2.6 mm
14:00 20.0° 1014.7 hPa 1.8 m/s 1.8 mm
20:00 17.7° 1015.4 hPa 1.0 m/s 1.4 mm
 06:16     20:48    Daglengte: 14:32 Zondag 08 Aug
02:00 14.0° 1017.7 hPa 1.0 m/s 1.4 mm
08:00 15.1° 1017.9 hPa 0.6 m/s 0.5 mm
14:00 22.4° 1017.3 hPa 1.9 m/s 0.6 mm
20:00 19.2° 1018.1 hPa 0.6 m/s 0.5 mm
 06:17     20:46    Daglengte: 14:29 Maandag 09 Aug
02:00 15.3° 1019.9 hPa 1.0 m/s 0.5 mm
08:00 16.7° 1019.8 hPa 0.8 m/s 0.6 mm
14:00 24.5° 1018.6 hPa 1.9 m/s 0.4 mm
20:00 19.9° 1019.1 hPa 0.7 m/s 1.5 mm
 06:18     20:45    Daglengte: 14:27 Dinsdag 10 Aug
02:00 16.0° 1020.9 hPa 0.9 m/s 1.9 mm
08:00 16.7° 1020.9 hPa 0.5 m/s 0.8 mm
14:00 23.4° 1019.6 hPa 1.7 m/s 0.9 mm
20:00 19.7° 1019.5 hPa 0.9 m/s 1.0 mm
 06:20     20:43    Daglengte: 14:23 Woensdag 11 Aug
02:00 15.5° 1021.1 hPa 0.8 m/s 1.1 mm
08:00 16.0° 1021.2 hPa 0.8 m/s 1.4 mm
14:00 22.0° 1019.9 hPa 2.2 m/s 0.9 mm
20:00 18.4° 1020.1 hPa 1.1 m/s 2.1 mm
 06:21     20:41    Daglengte: 14:20 Donderdag 12 Aug
02:00 14.5° 1021.6 hPa 0.6 m/s 1.4 mm
08:00 15.3° 1021.1 hPa 0.4 m/s 0.5 mm
14:00 22.0° 1019.3 hPa 1.9 m/s 0.6 mm
FMI Hirlam - 7.5 km EWN WRFDA - 12 km DWD ICON - 7 km GFS - 25 km Basiskaart






























































Updatetijd (Europe/Amsterdam) Resolutie Lengte Stap
FMI Hirlam 19:00, 01:00, 07:00, 13:00 7.5 km 49h 1h
EWN WRFDA 16:30, 22:30, 04:30, 10:30 12 km 73h 1h
DWD ICON 18:00, 00:00, 06:00, 12:00 7 km 75h 1h
GFS 14:15, 20:15, 02:15, 08:15 25 km 237h 3h
30+ mm
25-30 mm
20-25 mm
15-20 mm
10-15 mm
6-10 mm
4-6 mm
2-4 mm
1-2 mm
0.5-1 mm
0.2-0.5 mm
0.1-0.2 mm
30+ mm
25-30 mm
20-25 mm
15-20 mm
10-15 mm
6-10 mm
4-6 mm
2-4 mm
1-2 mm
0.5-1 mm
0.2-0.5 mm
0.1-0.2 mm
Sneeuwval
Natte sneeuw
Hagel
Vorst
30+ mm
25-30 mm
20-25 mm
15-20 mm
10-15 mm
6-10 mm
4-6 mm
2-4 mm
1-2 mm
0.5-1 mm
0.2-0.5 mm
0.1-0.2 mm
Sneeuwval
Natte sneeuw
Hagel
Vorst
Onweer
50 mm
40 mm
30 mm
26 mm
22 mm
18 mm
14 mm
10 mm
9 mm
8 mm
7 mm
6 mm
5 mm
4.5 mm
4 mm
3.5 mm
3 mm
2.5 mm
2 mm
1.5 mm
1 mm
0.8 mm
0.6 mm
0.4 mm
0.2 mm
0.05 mm
35°
30°
25°
20°
15°
10°
-5°
-10°
-15°
-20°
-25°
-30°
-35°
33> m/s
29 m/s
25 m/s
21 m/s
17 m/s
14 m/s
11 m/s
8 m/s
5 m/s
3 m/s
0 m/s
2600 J/kg
2400 J/kg
2200 J/kg
2000 J/kg
1800 J/kg
1600 J/kg
1400 J/kg
1200 J/kg
1000 J/kg
800 J/kg
600 J/kg
400 J/kg
200 J/kg
70 dBZ
65 dBZ
60 dBZ
55 dBZ
50 dBZ
45 dBZ
40 dBZ
35 dBZ
30 dBZ
25 dBZ
20 dBZ
15 dBZ
10 dBZ
5 dBZ
-1 K
-2 K
-3 K
-4 K
-5 K
-6 K
-7 K
-8 K
-9 K
950 m²/s²
900 m²/s²
850 m²/s²
800 m²/s²
750 m²/s²
700 m²/s²
650 m²/s²
600 m²/s²
550 m²/s²
500 m²/s²
450 m²/s²
400 m²/s²
350 m²/s²
300 m²/s²
250 m²/s²
200 m²/s²
150 m²/s²
100 m²/s²
46 m/s
44 m/s
42 m/s
40 m/s
38 m/s
36 m/s
34 m/s
32 m/s
30 m/s
28 m/s
26 m/s
24 m/s
22 m/s
20 m/s
16 m/s
12 m/s
8 m/s
4 m/s
30 m/s
28 m/s
26 m/s
24 m/s
22 m/s
20 m/s
18 m/s
16 m/s
14 m/s
12 m/s
10 m/s
8 m/s
6 m/s
4 m/s
2 m/s
3.0
2.8
2.6
2.4
2.2
2.0
1.8
1.6
1.4
1.2
1.0
0.8
0.6
0.4
0.2
15
14
13
12
11
10
9
8
7
6
5
4
3
2
1
90%
80%
70%
60%
50%
40%
30%
20%
10%
42
40
38
36
34
32
30
28
26
24
22
20
18
16
14
12
90+ cm
80-90 cm
70-80 cm
60-70 cm
50-60 cm
40-50 cm
30-40 cm
20-30 cm
10-20 cm
1-10 cm
Sneeuwval
Natte sneeuw
Regen
>120 mm
115 mm
110 mm
105 mm
100 mm
95 mm
90 mm
85 mm
80 mm
75 mm
70 mm
65 mm
60 mm
55 mm
50 mm
45 mm
45 mm
40 mm
35 mm
30 mm
25 mm
20 mm
15 mm
10 mm
5 mm
0.1 mm
960 hPa
880 hPa
800 hPa
720 hPa
640 hPa
560 hPa
584 gpdm
568 gpdm
552 gpdm
536 gpdm
520 gpdm
504 gpdm
488 gpdm
Extreem zwaar Noodweer Kans op onweer
15% 15% 5% 50% 15%

Dag




Kaart